Regional Weather Roundup
Issued by NWS Wakefield, VA

Home | Current Version | Previous Version | Text Only | Print | Product List | Glossary Off
Versions: 1 2 3 4 5 6 7 8 9 10 11 12 13 14 15 16 17 18 19 20 21 22 23 24 25 26 27 28 29 30 31 32 33 34 35 36 37 38 39 40 41 42 43 44 45 46 47 48 49 50

000
ASUS41 KAKQ 062210
RWRAKQ

REGIONAL WEATHER ROUNDUP
NATIONAL WEATHER SERVICE WAKEFIELD VA
500 PM EST FRI MAR 06 2015

Note: "fair" indicates few or no clouds below 12,000 feet with no
significant weather and/or obstructions to visibility. * = Denotes
station may not report precipitation (e.g., rain,snow,etc.),
thunder or fog.

VAZ042-051-052>054-056-062300-
NORTHERN VIRGINIA

CITY           SKY/WX    TMP DP  RH WIND       PRES   REMARKS
WASH NATIONAL  MOSUNNY   28   7  41 S7        30.48F
DULLES         MOSUNNY   24   3  40 CALM      30.46F
FORT BELVOIR   SUNNY     26   9  49 SE3       30.47F
QUANTICO       SUNNY     26   8  46 S3        30.49F
FREDERICKSBRG* SUNNY     29  10  43 CALM      30.47F
STAFFORD*      SUNNY     28   4  36 CALM      30.51S
WARRENTON      SUNNY     28  13  53 CALM      30.45F
CULPEPER*      SUNNY     28   3  34 CALM      30.46F
MANASSAS*      SUNNY     25   9  50 CALM      30.47F
LEESBURG*      SUNNY     27   7  43 CALM      30.46S
WINCHESTER     MOSUNNY   28   1  31 E3        30.41S
FRONT ROYAL*   FAIR      27   9  46 NE3       30.39F
LURAY*         FAIR      30  12  47 CALM      30.39F
$$

VAZ048-049-060>072-079>083-062300-
CENTRAL AND SOUTH CENTRAL VIRGINIA

CITY           SKY/WX    TMP DP  RH WIND       PRES   REMARKS
RICHMOND       MOSUNNY   31  10  41 VRB5      30.46S
CHESTERFIELD*  FAIR      30   5  34 N3        30.46F
PETERSBURG*    SUNNY     32  10  39 N6        30.46S
HANOVER        SUNNY     30   9  41 N5        30.47F
TAPPAHANNOCK*  SUNNY     27   7  41 CALM      30.48S
QUINTON*       FAIR      29  10  45 SE5       30.46F
CHARLOTTSVILLE SUNNY     28   7  41 SE3       30.41F
GORDONSVILLE*  FAIR      28   0  31 CALM      30.43F
ORANGE*        SUNNY     28   5  37 CALM      30.46F
LOUISA*        SUNNY     28   7  40 CALM      30.43F
BUMPASS*       FAIR      28   6  40 CALM      30.45S
FARMVILLE*     SUNNY     40  11  31 E5        30.17F
CREWE*         FAIR      31   7  36 CALM      30.43S
FORT PICKETT*  FAIR      31  12  44 NW5       30.43S
CHASE CITY*    FAIR      34  15  46 CALM      30.42S
CLARKSVILLE*   FAIR      34  14  44 CALM      30.42S
SOUTH HILL*    SUNNY     32  10  39 N3        30.47F
LAWRENCEVILLE* FAIR      32  10  40 NE3       30.42F
EMPORIA*       SUNNY     32  14  47 N5        30.46S
$$

VAZ088>098-062300-
SOUTHEAST VIRGINIA

CITY           SKY/WX    TMP DP  RH WIND       PRES   REMARKS
NORFOLK        SUNNY     26  14  60 N12       30.46F WCI  16
VIRGINIA BEACH PTSUNNY   28  16  60 N12       30.45F WCI  18
NORFOLK NAVAL  MOSUNNY   29  14  53 N13       30.47F WCI  19
WEST POINT*    SUNNY     32  11  41 N6        30.48F
SALUDA*        FAIR      27  10  49 N6        30.46F
NEWPORT NEWS   SUNNY     30  16  56 E12       30.46F WCI  20
LANGLEY AFB    SUNNY     26  14  59 NE7       30.46F
FORT EUSTIS    SUNNY     31  16  54 E6        30.44F
WILLIAMSBURG*    N/A    N/A N/A N/A MISG      30.45F
HR EXEC AP*      N/A    N/A N/A N/A MISG        N/A
FRANKLIN*      SUNNY     32  15  49 N6        30.45S
WAKEFIELD      SUNNY     32  13  45 NE5       30.45F
$$

VAZ020-022-025-037-045-062300-
WEST CENTRAL AND SOUTHWEST VIRGINIA

CITY           SKY/WX    TMP DP  RH WIND       PRES   REMARKS
STAUNTON*      SUNNY     26   8  46 CALM      30.39F
WAYNESBORO*    FAIR      24  13  62 S3        30.35F
HOT SPRINGS VA SUNNY     21  14  73 W6        30.19S
LYNCHBURG      SUNNY     31  10  41 CALM      30.41F
DANVILLE       SUNNY     36  12  37 NE5       30.41F
SOUTH BOSTON*  FAIR      33  10  38 CALM      30.43S
MARTINSVILLE   SUNNY     38  13  36 CALM      30.40S
ROANOKE        SUNNY     31  15  52 NE6       30.39F
BLACKSBURG     SUNNY     29  13  51 NW3       30.35S
DUBLIN*        SUNNY     32  21  64 CALM      30.33S
MARION*        SUNNY     33  18  54 W14       30.31F WCI  23
HILLSVILLE*    SUNNY     33  18  54 N9        30.28R
RICHLANDS*     FAIR      29  15  55 S3        30.30F
WISE*          SUNNY     32  19  59 CALM      30.31F
ABINGDON*      SUNNY     35  17  48 NW8       30.34F
$$

MDZ021>025-VAZ099-100-062300-
SOUTHERN MARYLAND AND THE DELMARVA PENINSULA

CITY           SKY/WX    TMP DP  RH WIND       PRES   REMARKS
PATUXENT RIVER MOSUNNY   21   8  57 NE5       30.47F
BAY BRIDGE APT   N/A     25   7  46 CALM      30.48F
LEONARDTOWN    SUNNY     27  12  54 CALM      30.48F
DOVER          SUNNY     24   7  50 CALM      30.47F
GEORGETOWN     SUNNY     23  10  57 NE6       30.47F
EASTON         SUNNY     25   9  50 CALM      30.51F
CAMBRIDGE      SUNNY     27   9  46 NW3       30.47F
SALISBURY      SUNNY     28  13  53 NW6       30.46F
OCEAN CITY     SUNNY     24  14  65 NE9       30.48F
WALLOPS ISLAND SUNNY     26  17  68 E12       30.46F WCI  16
ACCOMACK*      SUNNY     28  18  64 NW8       30.46F
$$

NCZ012>017-030>032-062300-
NORTH CENTRAL AND EASTERN NORTH CAROLINA

CITY           SKY/WX    TMP DP  RH WIND       PRES   REMARKS
ROANOKE RAPIDS FAIR      34  14  44 N7        30.43F
RALEIGH        MOSUNNY   36  11  35 NE6       30.41F
ELIZABETH CITY SUNNY     31  19  61 N13       30.44S WCI  21
AHOSKIE*       SUNNY     33  14  46 N5        30.44S
EDENTON*       SUNNY     34  18  53 N7        30.43S
CURRITUCK*     MOSUNNY   31  20  62 N9        30.44S
KILL DEVIL HLS CLOUDY    28  23  82 N12G20    30.40S WCI  18
MANTEO         CLOUDY    28  23  81 N20G26    30.42S WCI  15
CAPE HATTERAS  CLOUDY    31  27  85 N12G26    30.37S WCI  22
TARBORO*       FAIR      36  15  43 NE6       30.44S
GOLDSBORO      SUNNY     37  19  46 N7        30.40S
WASHINGTON     SUNNY     36  19  49 NW8       30.41F
GREENVILLE     SUNNY     36  18  48 NW7       30.42S
NEW BERN       SUNNY     40  20  44 N12       30.40S
WILMINGTON     CLOUDY    42  23  46 N10       30.38R
$$

VAZ048-062300-
ELSEWHERE

CITY           SKY/WX    TMP DP  RH WIND       PRES   REMARKS
HARRISBURG PA  PTSUNNY   21   2  43 NW6       30.43F
BALTIMORE      MOSUNNY   25   5  42 SW3       30.45F
ANNAPOLIS      SUNNY     22   9  57 SE5       30.48F
ANDREWS AFB    SUNNY     22   7  50 E2        30.45F
PHILADELPHIA   SUNNY     26   9  48 SW8       30.46F
HENDERSON NC   SUNNY     33   6  31 CALM      30.41F
GREENSBORO     MOSUNNY   35  16  45 N3        30.37F
ROCKY MOUNT    SUNNY     36  14  40 N7        30.43S
$$

VAZ100-062300-
MARINE

STATION/POSITION TIME  TEMP    WIND        PRES    WAVE   SWELL
                       AIR SEA DIR/SP/G            HT/PER HT/PER
                 (UTC) (F)     (DEG/KT/KT) (MB)    (FT/S) (FT/S)
BRANDYWINE LGT   2100   22 31  310/  6/  9 1032.2F
CAPE MAY NJ      2200   23 33  290/  5/  7 1031.8S
LEWES DE         2200   23 30  330/  3/  5 1032.0F
15NM E FENWICK I 2200   24 36              1031.6F   4/ 6
OCEAN-CITY-INLET 2200   24 33   70/  5/  8 1031.7F
WACHAPREAGUE VA  2200   27 38  350/  5/ 11 1031.3F
THOMAS POINT MD  2200           50/  6/  7   N/A
COVE POINT MD    2200   20      40/  3/  5 1032.0F
SOLOMONS ISLAND  2200      34                N/A
BISHOPS HEAD MD  2200   25 33   30/  6/  9 1031.5F
CAMBRIDGE MD     2200   23 32  320/  3/  5 1032.1F
LEWISETTA VA     2200             CALM     1031.9S
RAPPAHANNOCK LGT 2200          350/ 12/ 14 1032.1F
STINGRAY PT      2200   25      20/ 10/ 12   N/A
YORK RVR RNG VA  2200   26      50/ 12/ 15 1032.8R
YORKTOWN VA      2200   27 35   70/ 10/ 13 1031.4S
DOMINION TERM VA 2200   28      30/  6/ 11 1031.5F
KIPTOPEKE VA     2200          360/ 11/ 14   N/A
CHES BAY BRIDGE  2200   24 34  340/ 13/ 16 1031.1F
CAPE HENRY VA    2200   24     340/ 15/ 18 1029.8F
CHESAPEAKE LGHT  2100   26     360/ 18/ 20 1031.6F
WILLOUBY STN VA  2200           30/ 12/ 13 1031.9F
S CRANEY ISL VA  2200           30/ 11/ 12 1031.4F
CAPE HENRY BUOY  2200      35                N/A     5/ 7
1ST LANDING BUOY 2200   25     350/ 16/ 17 1031.0S
OFFSHORE WE BUOY 2200      36                N/A     6/ 6   2/25
64NM E OF VA BCH 2200   36 51  360/ 21/ 25 1028.0F   7/ 8   3/ 8
DUCK PIER NC     2200   27 35   10/ 19/ 24 1028.9R
44100 DUCK FRF   2200      37                N/A     8/ 8   2/11
44056 DUCK FRF   2200      35                N/A     7/ 5   2/11
OREGON INLET NC  2200   29 38  350/ 18/ 23 1029.3R
HATTERAS NC      2200   31 43   10/ 25/ 29 1028.6R
CAPE LOOKOUT NC  2200           10/ 15/ 18 1028.5R
$$


USA.gov is the U.S. government's official web portal to all federal, state and local government web resources and services.